DELTA 1 R/B, 2758

Orbit data source: Space-Track

DELTA 1 R/B, 2758 is space debris in SSO originally from a launch on Thu, 20 Apr 1967 UTC launched from the Air Force Western Test Range (AFWTR). Debris objects in space refer to the collection of defunct objects orbiting the Earth. Examples of debris include non-operational satellites, rocket bodies, and fragments generated from explosions, collisions, or faulty payload assembly.

Loading next visibility...
DELTA 1 R/B details
Identifier
2758, 1967-036B
Orbit
SSO
Last TLE update15 hours ago
Origin
Flag of USGSFC (US)
ManufacturerABL
MissionSpacecraft
Bus & MotorALTAIR, Unknown motor
Mass33 kg wet, 33 kg dry
Launch date (UTC)
1967-04-20 (58 years ago)
Launch vehicleUnknown
Launch site
Air Force Western Test Range (AFWTR)
Object type
Payload
Rocket body
Debris
Shape & HBRCyl, 1.5 m
Radar Cross Section0.687 m², Medium (>0.1 m² and < 1m²)

Expand to show TLE details & history

TLE from 15 hours ago
0 DELTA 1 R/B
1 02758U 67036B   24356.64778300 -.00000010  00000-0  19615-3 0  9996
2 02758 101.8999 237.7465 0040971 320.4160  39.3931 12.68904426670476
Epoch: 2024-12-21T15:32Z
Definitive object data (Epoch: 2024-12-21T15:32:48.451Z)
Latitude-0.00002°
Longitude-86.15131°
Altitude1,364.463 km
Speed7.188 km/s
True Right ascension15h 50m 59s
True Declination0° 00' 00"
Sunlit
Object was in daylight at TLE epoch
Visualization TLE readout
Latitude-46.97244°
Longitude-72.52999°
Altitude1,372.777 km
Speed7.186 km/s
Apparent Right ascension17h 07m 13s
Apparent Declination-43° 45' 17"
Sunlit
Object is in daylight
Visualization observer readout
Local Sidereal Time05:30:44
Azimuth133.159° SE
Elevation-84.178°
Doppler factor1
Orbital elements
Apogee altitude1,415.739 km
Perigee altitude1,352.135 km
Semi-major axis7,762.074 km
Eccentricity0.0040971
Inclination101.8999°
RAAN237.7465°
Arg. of periapsis320.416°
True anomaly39.69224°
Mean anomaly39.3931°
Eccentric anomaly39.54255°
Mean motion3.17378 °/min
BSTAR0.00019615
Orbital period113.43 mins
Loading maneuver chart data...
Loading historical data...
Loading historical data...
Loading historical data...
Loading historical data...
Loading historical data...
Loading historical data...
Loading historical data...
Other satellites on launch #36 in the year 1967 (1967-04-20 UTC)

DELTA 1 R/B Visibility forecast

Observer location: undefined°, undefined

Span
Click to sort rows by Start time (UTC) header in descending order
Start Az.
Max El. time (UTC)
Max El. Az.
Max El.
End time (UTC)
End Az.
10 mins2024-12-22 07:16:58.797Z347.025° N2024-12-22 07:21:58.797Z305.643° NW19.335°2024-12-22 07:26:58.797Z266.318° W
10 mins2024-12-22 14:25:58.797Z97.171° ESE2024-12-22 14:30:58.797Z51.703° ENE22.579°2024-12-22 14:35:58.797Z9.015° NNE
14 mins2024-12-22 16:14:58.797Z168.739° S2024-12-22 16:20:58.797Z228.233° WSW44.046°2024-12-22 16:28:58.797Z339.315° N
5 mins2024-12-22 18:11:58.797Z255.723° W2024-12-22 18:13:58.797Z271.444° WNW12.534°2024-12-22 18:16:58.797Z294.277° NW
12 mins2024-12-23 04:08:58.797Z42.215° NE2024-12-23 04:14:58.797Z98.684° ESE27.861°2024-12-23 04:20:58.797Z153.469° SSE
14 mins2024-12-23 05:59:58.797Z6.712° NNE2024-12-23 06:06:58.797Z282.768° WNW39.499°2024-12-23 06:13:58.797Z220.699° SW
|